Location: Great Snoring
(52.8667°N, 0.8833°E)
Time: 22:39:42
(UTC+00:00)

Helios 1A - Pass Details

Date: 19 May 2025
Orbit: 544 x 570 km, 98.3° (Epoch: 03 June)

Event Time Altitude Azimuth Distance (km) Brightness Sun altitude
Rises 20:41:05 0° 15° (NNE) 2,791 6.9 -6.2°
Reaches altitude 10° 20:43:15 10° 16° (NNE) 1,886 6.0 -6.4°
Maximum altitude 20:47:20 85° 103° (ESE) 578 2.9 -6.8°
Drops below altitude 10° 20:51:23 10° 195° (SSW) 1,859 5.2 -7.2°
Sets 20:53:30 0° 196° (SSW) 2,747 6.1 -7.5°
